Location: *
(51.1667°S, 178.4000°E)
Time: 04:25:29
(UTC+00:00)

Daily predictions for brighter satellites

Satellite Brightness Start Highest point End
(mag) Time Altitude Azimuth Time Altitude Azimuth Time Altitude Azimuth
SKYMED 2 3.7 04:44:40 10° NNE 04:48:58 55° ESE 04:53:19 10° S
COSMOS 2455 4.1 04:43:39 10° W 04:49:01 32° SSW 04:54:26 10° SSE
Cosmos 2333 Rocket 4.2 04:47:43 10° S 04:49:07 11° S 04:50:30 10° SSE
Cosmos 2369 4.4 04:44:46 10° SSW 04:49:56 32° SE 04:55:02 10° ENE
Cosmos 1339 Rocket 4.5 04:44:05 10° N 04:50:09 69° E 04:56:17 10° SSE
Spot 4 Rocket 4.3 04:45:37 10° SSE 04:50:53 79° WSW 04:56:05 10° NNW
Cosmos 1110 Rocket 4.4 04:47:11 10° N 04:52:19 48° ENE 04:57:28 10° SSE
Landsat 4 3.7 04:48:36 10° SSE 04:52:28 75° ENE 04:56:16 10° N
SJ-12 4.4 04:49:14 10° SSE 04:53:17 42° E 04:57:15 10° N
Cosmos 1825 Rocket 3.6 04:49:42 10° N 04:54:04 65° E 04:58:32 10° SSE
USA 308 3.0 04:49:51 10° WSW 04:54:04 63° S 04:58:18 10° E
Cosmos 2221 3.0 04:50:40 10° S 04:54:55 41° ESE 04:59:07 10° NE
Cosmos 1340 Rocket 4.2 04:52:07 10° NE 04:55:07 20° E 04:58:10 10° SE
Cosmos 2082 Rocket 4.0 04:54:25 10° ENE 04:56:13 12° E 04:58:02 10° ESE
Cosmos 1605 Rocket 4.0 04:51:44 10° S 04:58:11 78° ESE 05:04:27 10° NNE
Cosmos 1697 Rocket 2.9 04:55:44 10° SSW 05:01:20 53° SE 05:06:54 10° NE
ALOS 4.2 04:58:22 10° S 05:02:22 28° WSW 05:06:20 10° WNW
YAOGAN 6 2.8 04:59:25 10° S 05:03:04 76° WSW 05:06:37 10° NNW
Cosmos 2360 4.4 04:58:56 10° SSW 05:04:37 55° SE 05:10:14 10° NE
CZ-2C R/B 4.2 05:01:29 10° S 05:05:27 28° WSW 05:09:27 10° WNW
Cosmos 1331 Rocket 4.2 05:00:32 10° N 05:05:39 56° ENE 05:10:48 10° SSE
Meteor 1-31 Rocket 3.6 05:06:12 10° SSE 05:09:52 34° E 05:13:30 10° NNE
CZ-2C R/B 3.0 05:06:17 10° SSE 05:11:03 58° E 05:15:53 10° N
Cosmos 1758 Rocket 4.4 05:07:07 10° NNW 05:11:31 55° WSW 05:16:02 10° S
Cosmos 2219 Rocket 4.3 05:10:39 10° S 05:11:46 10° S 05:12:52 10° SSE
Lacrosse 5 2.5 05:12:19 10° WSW 05:17:14 44° S 05:21:34 13° ESE
Cosmos 1939 Rocket 3.9 05:14:06 10° SE 05:17:22 24° E 05:20:37 10° NNE
USA 305 2.8 05:13:16 10° WSW 05:17:31 75° SSE 05:21:45 10° ENE
Cosmos 1933 4.0 05:14:14 10° S 05:18:00 33° ESE 05:21:43 10° NE
CZ-2C R/B 3.7 05:15:33 10° S 05:19:35 53° WSW 05:23:33 10° NNW
Cosmos 2058 3.0 05:15:45 10° N 05:19:59 84° WSW 05:24:15 10° S
Cosmos 1782 3.7 05:17:05 10° S 05:20:35 28° ESE 05:24:04 10° NE
Cosmos 1606 4.2 05:22:50 10° SSW 05:26:35 41° W 05:30:16 10° NNW
CZ-4B R/B 4.3 05:22:11 10° SSE 05:26:40 55° E 05:31:00 10° N
SL-16 R/B 3.5 05:23:40 10° SSW 05:28:00 21° SE 05:30:51 15° ESE
COSMOS 2406 4.1 05:23:22 10° NNE 05:28:11 29° ENE 05:32:11 14° SE
Cosmos 2173 Rocket 4.1 05:23:16 10° S 05:29:37 54° ESE 05:35:48 10° NNE
DMSP B5D2-2 4.1 05:24:46 10° NNE 05:30:03 90° E 05:35:24 10° SSW
Lacrosse 5 rocket 2.2 05:27:01 10° WSW 05:30:54 36° S 05:33:30 17° SE
Cosmos 2016 Rocket 4.4 05:25:28 10° S 05:31:17 39° ESE 05:37:07 10° NE
CZ-4B R/B 4.1 05:33:56 18° E 05:34:25 18° E 05:37:06 10° NE
SeaSat 1 3.5 05:30:24 10° SSE 05:35:05 42° SW 05:39:44 10° WNW
Cosmos 1607 4.1 05:29:37 10° NNW 05:35:45 58° ENE 05:41:09 14° SE
Lacrosse 4 Rocket 2.4 05:32:35 10° WNW 05:36:43 46° SW 05:40:59 10° SSE
COSMO-SKYMED 1 3.5 05:32:47 10° N 05:37:05 54° W 05:41:27 10° SSW
Cosmos 1727 Rocket 4.0 05:30:57 10° N 05:37:10 71° E 05:43:25 10° SSE
Cosmos 1452 Rocket 4.2 05:32:06 10° NW 05:37:18 54° WSW 05:42:33 10° SSE
Envisat 4.0 05:37:44 10° S 05:42:41 47° WSW 05:47:35 10° NW
Cosmos 1802 Rocket 4.2 05:36:28 10° S 05:42:49 54° ESE 05:49:09 10° NNE
Orbus 7S? 3.7 05:38:21 10° WSW 05:43:18 44° S 05:44:48 25° ESE
NOAA 12 4.3 05:39:55 10° SSE 05:45:09 49° E 05:50:18 10° N
Cosmos 968 Rocket 3.6 05:40:42 10° SSW 05:46:04 81° WNW 05:51:22 10° NNE
Meteor 2-3 Rocket 3.8 05:43:30 10° N 05:48:58 55° E 05:54:34 10° SSE
Cosmos 2278 4.1 05:43:43 10° SSW 05:49:11 43° SE 05:54:36 10° ENE
ATLAS 2AS CENTAUR R/B 3.3 05:43:10 10° SW 05:50:05 66° NW 05:57:28 10° NNE
Cosmos 1833 Rocket 2.7 05:45:49 10° NNW 05:51:25 64° ENE 05:56:14 15° SE
H-2A R/B 2.6 05:48:40 14° SE 05:52:20 32° E 05:56:45 10° NNE
Cosmos 2360 Rocket 3.7 05:49:51 10° SSW 05:53:42 18° SSE 05:54:40 17° SE
Cosmos 1953 Rocket 4.4 05:50:04 10° NNW 05:54:24 51° WSW 05:58:45 10° S
Cosmos 2151 3.3 05:50:15 10° NNE 05:54:24 46° E 05:58:16 12° SSE
ADEOS 3.8 05:49:59 10° SSE 05:55:09 49° E 06:00:15 10° N
ERBS 2.8 05:52:37 10° SW 05:55:38 37° SSE 05:56:13 33° SE
Cosmos 1459 Rocket 3.9 05:50:44 10° S 05:56:58 79° E 06:03:14 10° NNE
RESURS DK-1 2.5 05:53:02 10° SSW 05:57:11 51° SE 06:00:20 16° NE
USA 306 2.9 05:55:19 10° WSW 05:59:34 79° NNW 06:02:19 21° ENE
SJ-7 4.3 05:56:19 10° SSE 06:00:33 76° ENE 06:04:39 10° N
Cosmos 2100 Rocket 4.0 05:54:20 10° S 06:00:47 89° E 06:07:03 10° N
USA 307 2.9 05:58:54 10° WSW 06:03:09 83° NNW 06:05:36 25° ENE
Meteor 1-26 Rocket 4.4 05:59:53 10° SSW 06:06:03 85° ESE 06:12:07 10° NNE
CZ-2D R/B 4.0 06:06:28 32° ENE 06:06:28 32° ENE 06:09:39 10° NNE
Meteor 2-6 Rocket 4.4 06:01:34 10° S 06:07:04 45° ESE 06:12:22 10° NE
Landsat 5 3.7 06:05:16 10° NNE 06:09:46 79° WNW 06:14:12 10° SSW
Aureole 1 Rocket 4.1 06:02:23 10° SSW 06:10:14 82° ESE 06:16:22 10° NNE
USA 281 3.6 06:05:45 18° SE 06:10:20 42° ENE 06:16:34 10° N
CZ-4C R/B 2.7 06:10:57 10° NNE 06:14:11 69° ESE 06:17:33 10° S
[s.n.52708] 2.7 06:11:16 10° W 06:14:11 65° SSW 06:14:19 64° S
[s.n.52707] 2.7 06:11:22 10° W 06:14:18 65° SSW 06:14:25 64° S
[s.n.52703] 2.7 06:11:30 10° W 06:14:26 65° S 06:14:32 64° S
[s.n.52705] 2.7 06:11:36 10° W 06:14:32 65° S 06:14:39 64° S
[s.n.52706] 2.7 06:11:43 10° W 06:14:39 65° SSW 06:14:45 64° S
[s.n.52701] 2.7 06:11:50 10° W 06:14:45 64° SSW 06:14:52 64° S
[s.n.52704] 2.7 06:11:57 10° W 06:14:52 64° S 06:14:58 64° S
[s.n.52699] 2.7 06:12:03 10° W 06:14:59 64° S 06:15:05 64° S
[s.n.52702] 2.8 06:12:10 10° W 06:15:06 64° S 06:15:11 64° S
[s.n.52697] 2.8 06:12:17 10° W 06:15:13 64° S 06:15:18 64° S
[s.n.52700] 2.8 06:12:24 10° W 06:15:20 64° S 06:15:24 64° S
[s.n.52695] 2.8 06:12:31 10° W 06:15:27 64° S 06:15:31 64° S
[s.n.52698] 2.8 06:12:37 10° W 06:15:33 64° SSW 06:15:38 64° S
[s.n.52693] 2.8 06:12:44 10° W 06:15:40 64° S 06:15:45 64° S
[s.n.52696] 2.8 06:12:51 10° W 06:15:47 64° S 06:15:51 64° S
Cosmos 1151 Rocket 3.7 06:11:39 10° S 06:15:18 35° SE 06:15:18 35° SE
[s.n.52691] 2.8 06:12:58 10° W 06:15:54 64° S 06:15:58 64° S
[s.n.52689] 2.8 06:13:05 10° W 06:16:01 64° S 06:16:04 64° S
[s.n.52694] 2.8 06:13:12 10° W 06:16:07 64° SSW 06:16:11 64° S
[s.n.52692] 2.8 06:13:19 10° W 06:16:15 64° S 06:16:18 64° S
[s.n.52687] 2.8 06:13:25 10° W 06:16:22 64° S 06:16:24 64° S
[s.n.52685] 2.8 06:13:32 10° W 06:16:28 64° S 06:16:31 64° S
[s.n.52690] 2.8 06:13:39 10° W 06:16:35 64° S 06:16:37 64° S
[s.n.52688] 2.8 06:13:46 10° W 06:16:42 64° S 06:16:44 64° S
[s.n.52683] 2.8 06:13:53 10° W 06:16:49 64° S 06:16:51 64° S
Cosmos 192 4.4 06:11:55 10° NNW 06:16:54 82° WSW 06:20:48 17° SSE
[s.n.52686] 2.8 06:14:00 10° W 06:16:56 64° S 06:16:58 64° S
[s.n.52681] 2.8 06:14:07 10° W 06:17:03 64° S 06:17:05 64° S
[s.n.52679] 2.8 06:14:14 10° W 06:17:10 64° S 06:17:11 64° S
[s.n.52684] 2.8 06:14:21 10° W 06:17:17 63° SSW 06:17:18 63° S
[s.n.52682] 2.8 06:14:28 10° W 06:17:24 63° S 06:17:24 63° S
[s.n.52677] 2.8 06:14:35 10° W 06:17:32 63° S 06:17:32 63° S
[s.n.52680] 2.8 06:14:42 10° W 06:17:38 63° SSW 06:17:38 63° SSW
[s.n.52675] 2.8 06:14:49 10° W 06:17:45 63° S 06:17:45 63° S
[s.n.52678] 2.8 06:14:56 10° W 06:17:52 63° SSW 06:17:52 63° SSW
[s.n.52673] 2.8 06:15:04 10° W 06:17:59 63° SSW 06:17:59 63° SSW
[s.n.52676] 2.8 06:15:11 10° W 06:18:06 63° SSW 06:18:06 63° SSW
[s.n.52671] 2.8 06:15:18 10° W 06:18:12 63° SSW 06:18:12 63° SSW
[s.n.52669] 2.8 06:15:25 10° W 06:18:19 63° SSW 06:18:19 63° SSW
[s.n.52674] 2.9 06:15:32 10° W 06:18:26 63° SSW 06:18:26 63° SSW
[s.n.52672] 2.9 06:15:39 10° W 06:18:33 63° SSW 06:18:33 63° SSW
Cosmos 1812 2.6 06:14:42 10° S 06:18:39 80° E 06:22:31 10° NNE
[s.n.52667] 2.9 06:15:46 10° W 06:18:40 63° SSW 06:18:40 63° SSW
[s.n.52665] 2.9 06:15:53 10° W 06:18:47 63° SSW 06:18:47 63° SSW
[s.n.52670] 2.9 06:16:00 10° W 06:18:54 63° SSW 06:18:54 63° SSW
[s.n.52668] 2.9 06:16:08 10° W 06:19:01 63° SSW 06:19:01 63° SSW
[s.n.52666] 2.9 06:16:15 10° W 06:19:08 63° SSW 06:19:08 63° SSW
[s.n.52663] 2.9 06:16:22 10° W 06:19:15 62° SSW 06:19:15 62° SSW
[s.n.52662] 2.9 06:16:29 10° W 06:19:21 62° SSW 06:19:21 62° SSW
[s.n.52664] 2.9 06:16:36 10° W 06:19:29 62° SSW 06:19:29 62° SSW
[s.n.52661] 2.9 06:16:43 10° W 06:19:36 62° SSW 06:19:36 62° SSW
[s.n.52660] 2.9 06:16:51 10° W 06:19:42 62° SSW 06:19:42 62° SSW
[s.n.52656] 2.9 06:16:58 10° W 06:19:49 62° SSW 06:19:49 62° SSW
[s.n.52658] 2.9 06:17:05 10° W 06:19:57 62° SSW 06:19:57 62° SSW
[s.n.52659] 2.9 06:17:12 10° W 06:20:03 62° SSW 06:20:03 62° SSW
[s.n.52657] 2.9 06:17:20 10° W 06:20:11 62° SSW 06:20:11 62° SSW
Cosmos 2061 Rocket 4.0 06:14:09 10° S 06:20:38 71° ESE 06:26:58 10° NNE
Cosmos 1076 Rocket 3.8 06:18:34 10° NNW 06:22:58 72° WSW 06:27:24 10° S
Meteor PRIRODA 3.5 06:22:10 44° SSE 06:23:13 71° ENE 06:26:56 10° N
Cosmos 1980 Rocket 2.3 06:20:36 10° SSW 06:26:17 79° WNW 06:31:54 10° NNE
ARGOS 3.6 06:27:22 37° E 06:27:22 37° E 06:32:22 10° NNE
USA 215 4.1 06:21:07 10° NNE 06:27:30 50° NW 06:33:55 10° WSW
NOAA 6 4.2 06:27:40 34° SE 06:29:34 50° E 06:34:34 10° N
SJ 16-02 2.0 06:26:27 10° SSW 06:29:54 38° SSE 06:29:54 38° SSE
Cosmos 1340 Rocket 3.9 06:27:18 10° NW 06:31:12 45° WSW 06:35:12 10° S
Cosmos 2123 Rocket 3.9 06:25:58 10° N 06:32:18 74° E 06:38:43 10° SSE
Cosmos 1725 Rocket 3.9 06:26:07 10° S 06:32:27 87° ESE 06:38:46 10° N
FengYun 1-2 T 4.3 06:27:33 10° SSE 06:33:14 84° WSW 06:38:46 10° NNW
Cosmos 2322 Rocket 2.8 06:28:28 10° SSW 06:33:45 35° SE 06:33:47 35° SE
USA 308 3.3 06:29:33 10° WSW 06:33:45 60° NNW 06:35:04 39° NNE
Cosmos 2369 4.2 06:28:50 10° SW 06:34:31 62° WNW 06:40:07 10° NNE
SMAP 2.9 06:31:55 26° SSE 06:34:38 74° ENE 06:39:19 10° N
Cosmos 2333 Rocket 3.7 06:31:33 10° SSW 06:35:14 21° SSE 06:35:14 21° SSE
Cosmos 2082 Rocket 2.1 06:33:36 10° NNW 06:39:11 65° ENE 06:40:57 43° SE
H-2A R/B 3.1 06:41:55 34° SSE 06:41:55 34° SSE 06:44:43 10° S
AQUARIUS 4.0 06:41:53 48° SSE 06:43:07 76° ENE 06:47:39 10° N
Cosmos 1697 Rocket 4.4 06:40:04 10° SW 06:45:05 33° WNW 06:50:05 10° NNW
Cosmos 1777 Rocket 4.0 06:43:07 10° SSW 06:48:22 58° ESE 06:48:25 58° ESE
Cosmos 1354 Rocket 3.9 06:43:08 10° SSW 06:48:29 84° ESE 06:50:58 33° NNE
Radarsat 4.4 06:48:03 28° SSE 06:50:58 82° ENE 06:56:14 10° NNW
Cosmos 1939 Rocket 4.3 06:49:12 13° S 06:52:21 35° WSW 06:55:56 10° NW
Cosmos 1900 4.5 06:50:04 10° SW 06:54:23 55° SSE 06:54:23 55° SSE
USA 305 4.0 06:53:00 10° WSW 06:56:57 39° NW 06:57:43 35° N
Radarsat Rocket 4.5 06:51:28 18° SSE 06:56:59 62° ENE 07:04:54 10° N
Cosmos 967 Rocket 4.5 06:51:06 10° NNW 06:57:10 56° ENE 06:57:32 55° ENE
Cosmos 2219 Rocket 3.9 06:53:46 10° SSW 06:56:35 19° SSE 06:56:35 19° SSE
Lacrosse 5 2.1 06:55:48 10° WSW 07:00:46 58° SSE 07:00:46 58° SSE
IRAS Rocket 4.1 07:02:24 67° E 07:02:39 68° ESE 07:08:15 10° SSW
Cosmos 1992 Rocket 4.2 06:58:42 10° NNW 07:03:57 72° WSW 07:05:36 44° S
CORIOLIS 4.2 07:00:29 22° SSE 07:04:10 81° WSW 07:09:40 10° NNW
CZ-4B R/B 3.8 07:09:57 43° W 07:09:57 43° W 07:13:15 10° NW
Lacrosse 5 rocket 2.8 07:06:39 10° WSW 07:09:02 30° SW 07:09:02 30° SW
COSMOS 2406 3.7 07:06:31 10° NW 07:12:09 59° SW 07:14:16 37° S
Meteor 1-10 Rocket 4.2 07:06:40 10° SSW 07:12:31 85° W 07:15:25 31° N
SL-16 R/B 2.1 07:07:21 10° SSW 07:12:45 71° SSE 07:12:45 71° SSE
Lacrosse 4 Rocket 4.0 07:14:06 10° WSW 07:16:28 14° SSW 07:17:15 14° SSW
Meteor 1-27 Rocket 4.4 07:16:32 10° S 07:20:15 43° S 07:20:15 43° S
Cosmos 2233 Rocket 4.4 07:18:26 10° SSW 07:24:40 62° W 07:30:52 10° N
Cosmos 2237 Rocket 4.4 07:22:37 10° S 07:23:51 13° S 07:23:51 13° S
Cosmos 1447 Rocket 4.4 07:21:02 10° N 07:26:38 74° N 07:26:38 74° N
H-2A R/B 3.1 07:29:18 23° S 07:31:54 42° WSW 07:36:32 10° NW
Cosmos 1833 Rocket 4.2 07:30:45 10° WNW 07:35:48 31° SW 07:37:56 24° S
Cosmos 2360 Rocket 3.4 07:33:19 10° SSW 07:36:27 32° S 07:36:27 32° S
USA 281 3.8 07:52:38 37° S 07:54:58 53° SW 08:01:22 10° NW
ARGOS 4.5 08:08:53 36° W 08:08:53 36° W 08:12:44 10° NW
SJ 16-02 3.9 08:05:21 10° SW 08:06:55 18° WSW 08:06:55 18° WSW
Cosmos 2322 Rocket 3.7 08:12:28 10° SW 08:15:37 32° SW 08:15:37 32° SW
Cosmos 2333 Rocket 4.2 08:15:26 10° SSW 08:17:14 21° SSW 08:17:14 21° SSW
Cosmos 2082 Rocket 3.9 08:18:45 10° WNW 08:22:50 29° WSW 08:22:50 29° WSW
